TimeCDT,TemperatureF,Dew PointF,Humidity,Sea Level PressureIn,VisibilityMPH,Wind Direction,Wind SpeedMPH,Gust SpeedMPH,PrecipitationIn,Events,Conditions,WindDirDegrees,DateUTC
12:58 AM,25.5,23.9,94,30.06,10.0,SW,3.5,-,N/A,,Clear,220,2013-03-12 05:58:00
1:58 AM,27.1,24.6,90,30.04,10.0,South,2.3,-,N/A,,Clear,180,2013-03-12 06:58:00
2:58 AM,25.5,23.9,94,30.06,10.0,SW,4.6,-,N/A,,Clear,220,2013-03-12 07:58:00
3:58 AM,24.1,23.0,96,30.06,10.0,SW,3.5,-,N/A,,Clear,230,2013-03-12 08:58:00
4:58 AM,25.2,23.2,92,30.09,10.0,SW,4.6,-,N/A,,Clear,220,2013-03-12 09:58:00
5:58 AM,26.1,23.0,88,30.10,10.0,West,2.3,-,N/A,,Clear,270,2013-03-12 10:58:00
6:58 AM,26.8,22.1,83,30.11,10.0,West,3.5,-,N/A,,Clear,270,2013-03-12 11:58:00
7:58 AM,29.7,21.9,73,30.13,10.0,West,4.6,-,N/A,,Clear,280,2013-03-12 12:58:00
8:58 AM,32.5,22.5,66,30.16,10.0,West,8.1,-,N/A,,Partly Cloudy,280,2013-03-12 13:58:00
9:58 AM,35.4,22.6,60,30.17,10.0,West,5.8,-,N/A,,Scattered Clouds,280,2013-03-12 14:58:00
10:58 AM,38.7,23.0,53,30.20,10.0,Variable,6.9,17.3,N/A,,Scattered Clouds,0,2013-03-12 15:58:00
11:58 AM,44.1,23.5,44,30.19,10.0,NW,8.1,-,N/A,,Mostly Cloudy,310,2013-03-12 16:58:00
12:58 PM,48.7,21.4,34,30.19,10.0,NW,9.2,18.4,N/A,,Scattered Clouds,310,2013-03-12 17:58:00
1:58 PM,48.6,20.7,33,30.17,10.0,NW,11.5,-,N/A,,Mostly Cloudy,310,2013-03-12 18:58:00
2:39 PM,50.0,21.2,32,30.12,10.0,NW,15.0,24.2,N/A,,Overcast,310,2013-03-12 19:39:00
2:53 PM,50.0,21.2,32,30.12,10.0,NW,15.0,28.8,N/A,,Overcast,310,2013-03-12 19:53:00
2:58 PM,50.0,21.2,32,30.15,10.0,WNW,15.0,28.8,N/A,,Overcast,290,2013-03-12 19:58:00
3:26 PM,50.0,21.2,32,30.12,10.0,West,12.7,27.6,N/A,,Overcast,270,2013-03-12 20:26:00
3:58 PM,49.6,21.6,33,30.15,10.0,West,10.4,24.2,N/A,,Overcast,280,2013-03-12 20:58:00
4:58 PM,48.4,23.2,37,30.15,10.0,WSW,12.7,24.2,N/A,,Mostly Cloudy,250,2013-03-12 21:58:00
5:58 PM,46.9,23.9,40,30.15,10.0,WNW,10.4,18.4,N/A,,Mostly Cloudy,290,2013-03-12 22:58:00
6:58 PM,45.3,19.4,36,30.18,10.0,WNW,11.5,23.0,N/A,,Mostly Cloudy,300,2013-03-12 23:58:00
7:58 PM,39.6,25.3,57,30.21,10.0,NW,9.2,-,N/A,,Partly Cloudy,320,2013-03-13 00:58:00
8:58 PM,38.5,23.4,55,30.24,10.0,WNW,9.2,19.6,N/A,,Clear,300,2013-03-13 01:58:00
9:58 PM,36.5,23.5,59,30.25,10.0,NW,8.1,-,N/A,,Clear,310,2013-03-13 02:58:00
10:58 PM,35.2,23.9,63,30.27,10.0,NW,8.1,18.4,N/A,,Clear,320,2013-03-13 03:58:00